Location: Newark
(45.5000°N, 11.4167°E)
Time: 11:04:52
(UTC+00:00)

Explorer 11/Cluster Stage 4 - Pass Details

Date: 23 August 2019
Orbit: 467 x 1260 km, 28.8° (Epoch: 19 September)

Event Time Altitude Azimuth Distance (km) Brightness Sun altitude
Rises 11:23:34 0° 240° (WSW) 4,191 10.5 55.9°
Reaches altitude 10° 11:27:13 10° 227° (SW) 3,230 10.3 55.9°
Maximum altitude 11:33:13 23° 180° (S) 2,353 10.1 55.8°
Drops below altitude 10° 11:38:54 10° 132° (SE) 3,042 10.0 55.6°
Sets 11:42:13 0° 118° (ESE) 3,892 10.3 55.5°
